This is the latest recevied weather packets stored in our database for station/object N8QQQ. If no packets are shown the sender has not sent any weather packets the latest 1 day(s).
| Time | Temp. | Humidity | Pressure | Rain* | Wind** | Luminosity | Snow |
|---|---|---|---|---|---|---|---|
| 1778015781 | 4.44° C | 51% | 1007.4 hPa | 0 mm | 2.24 m/s, 351° | 112 W/m² | - |
| 1778015479 | 5° C | 51% | 1007.3 hPa | 0 mm | 2.68 m/s, 321° | 131 W/m² | - |
| 1778015175 | 5° C | 50% | 1007.5 hPa | 0 mm | 1.79 m/s, 343° | 165 W/m² | - |
| 1778014872 | 5.56° C | 50% | 1007.4 hPa | 0 mm | 2.24 m/s, 333° | 151 W/m² | - |
| 1778014570 | 5.56° C | 50% | 1007.3 hPa | 0 mm | 0.89 m/s, 346° | 143 W/m² | - |
| 1778014267 | 5.56° C | 50% | 1007.4 hPa | 0 mm | 2.68 m/s, 28° | 175 W/m² | - |
| 1778013964 | 5.56° C | 50% | 1007.3 hPa | 0 mm | 1.34 m/s, 338° | 162 W/m² | - |
| 1778013662 | 6.11° C | 48% | 1006.9 hPa | 0 mm | 1.34 m/s, 312° | 204 W/m² | - |
| 1778013358 | 6.11° C | 48% | 1006.8 hPa | 0 mm | 0.45 m/s, 268° | 222 W/m² | - |
| 1778013055 | 5° C | 50% | 1007.1 hPa | 0 mm | 1.79 m/s, 350° | 242 W/m² | - |
| 1778012751 | 5° C | 50% | 1007 hPa | 0 mm | 1.34 m/s, 219° | 138 W/m² | - |
| 1778012447 | 5.56° C | 50% | 1006.9 hPa | 0 mm | 0.89 m/s, 282° | 131 W/m² | - |
| 1778012144 | 5° C | 51% | 1007 hPa | 0 mm | 0.89 m/s, 315° | 137 W/m² | - |
| 1778011842 | 5° C | 51% | 1006.9 hPa | 0 mm | 1.79 m/s, 341° | 104 W/m² | - |
| 1778011539 | 5° C | 51% | 1006.8 hPa | 0 mm | 1.34 m/s, 315° | 131 W/m² | - |
| 1778011236 | 5° C | 50% | 1006.7 hPa | 0 mm | 1.79 m/s, 321° | 121 W/m² | - |
| 1778010932 | 5° C | 51% | 1006.5 hPa | 0 mm | 0.89 m/s, 214° | 90 W/m² | - |
| 1778010630 | 5° C | 52% | 1006.5 hPa | 0 mm | 1.34 m/s, 229° | 79 W/m² | - |
| 1778010327 | 5° C | 50% | 1006.3 hPa | 0 mm | 0.89 m/s, 0° | 84 W/m² | - |
| 1778010022 | 5.56° C | 49% | 1006.5 hPa | 0 mm | 0.89 m/s, 243° | 188 W/m² | - |
| 1778009720 | 5.56° C | 51% | 1006.4 hPa | 0 mm | 1.34 m/s, 197° | 263 W/m² | - |
| 1778009417 | 5° C | 52% | 1006.5 hPa | 0 mm | 1.79 m/s, 291° | 181 W/m² | - |
| 1778009115 | 5° C | 54% | 1006.5 hPa | 0 mm | 1.79 m/s, 292° | 146 W/m² | - |
| 1778008813 | 5° C | 56% | 1006.5 hPa | 0 mm | 2.24 m/s, 330° | 162 W/m² | - |
| 1778008511 | 4.44° C | 56% | 1006.4 hPa | 0 mm | 0.89 m/s, 302° | 146 W/m² | - |
* Rain latest hour (hover to see other rain measurements)
** Current wind speed in m/s (hover to see current wind gust speed)